Погода в Моховом

Россия / Орловская область     52°56′41″N   36°34′14″E
темп.,
°C
ветер,
м/с
пор.,
м/с
влажн.,
%
обл.,
%
осадки,
мм/ч
давл.,
гПа
погр.,
м
2 августа, пн
пн200:00+21ю47557 0.0 1011101
03:00+21ююв485646 0.0 1010126
06:00+20ююв347318 0.1 101072
09:00+27ю46515 0.1 1009450
12:00+31ююз89365 0.0 10082419
15:00+32юз8103547 0.0 10062844
18:00+31юз694193 0.0 10051370
21:00+18зюз91993100 3.5 1008826
3 августа, вт
вт300:00+19ююз71584100 5.5 1007414
03:00+18юз61292100 5.5 1008445
06:00+18зсз4894100 0.0 1009361
09:00+19з457888 0.1 1011722
12:00+22з566399 0.4 10121354
15:00+24з5649100 0.4 10111776
18:00+22зсз4757100 0.0 1012787
21:00+18зсз23710 0.0 101442
4 августа, ср
ср400:00+18зсз2368100 0.0 101589
03:00+15зсз34711 0.0 101651
06:00+14з23760 0.0 101761
09:00+19зсз34560 0.0 1017481
12:00+23зсз46410 0.0 10171973
15:00+24з4538100 0.0 10162459
18:00+23з3343100 0.0 10171923
21:00+19зюз2253100 0.0 101731
5 августа, чт
чт500:00+17зсз2266100 0.0 101812
03:00+15всв116957 0.0 101811
06:00+16юв117096 0.0 101811
09:00+16юз2385100 0.9 101996
12:00+17вюв357796 0.4 1018175
15:00+18юв366997 0.4 1017212
18:00+23юв365477 0.0 1015367
21:00+17в347793 0.4 101555
6 августа, пт
пт600:00+16в337861 0.1 101446
03:00+17ююв2269100 0.1 101433
06:00+18ююв0069100 0.1 101411
09:00+18юв2368100 0.1 101471
12:00+23ююв4552100 0.0 1015412
15:00+28юв563514 0.0 10131428
18:00+27вюв47435 0.0 1013320
21:00+22вюв5135075 0.0 1012228